Regional Weather Roundup
Issued by NWS

Home | Current Version | Previous Version | Text Only | Print | Product List | Glossary Off
Versions: 1 2 3 4 5 6 7 8 9 10 11 12 13 14 15 16 17 18 19 20 21 22 23 24 25 26 27 28 29 30 31 32 33 34 35 36 37 38 39 40 41 42 43 44 45 46 47 48 49 50

000
ASUS43 KIND 300500
RWRIN

WEATHER ROUNDUP FOR INDIANA
NATIONAL WEATHER SERVICE INDIANAPOLIS IN
100 AM EDT TUE MAY 30 2017

NOTE: "FAIR" INDICATES FEW OR NO CLOUDS BELOW 12,000 FEET WITH NO
SIGNIFICANT WEATHER AND/OR OBSTRUCTIONS TO VISIBILITY.

* - STATION DOES NOT REPORT WEATHER SUCH AS PRECIPITATION OR FOG.

+ - STATION NOT QUALITY CONTROLLED BY THE NATIONAL WEATHER SERVICE.
    USE DATA WITH CAUTION...ESPECIALLY DEWPOINT AND RELATIVE
    HUMIDITY OBSERVATIONS.

INZ001>003-010>013-019-020-300600-
NORTHWEST INDIANA

CITY           SKY/WX    TMP DP  RH WIND       PRES   REMARKS
MICHIGAN CITY+ CLEAR     52  52 100 CALM      29.91R
MONTICELLO +   CLOUDY    61  51  69 S3        29.93S
RENSSELAER +   MOCLDY    59  43  55 S5        29.93S

$$

LMZ046-743>745-300600-
SOUTHERN LAKE MICHIGAN

STATION/POSITION TIME  TEMP    WIND        PRES    WAVE
                       AIR SEA DIR/SP/G            HT
                 (UTC) (F)     (DEG/KT/KT) (MB)    (FT)
BURNS HARBOR     0430   65     220/  5/  7 1012.9S
MICHIGAN CITY    0430   63     190/  6/  6   N/A
5NW MICH CITY    0450   59 56  220/  4/  6   N/A     1

$$

INZ004-005-014>016-021>024-300600-
NORTH CENTRAL INDIANA

CITY           SKY/WX    TMP DP  RH WIND       PRES   REMARKS
GOSHEN         CLEAR     55  49  80 S3        29.91R
PERU/GRISSOM   CLOUDY    59  56  88 SW6       29.92S
SOUTH BEND     CLEAR     54  47  77 CALM      29.91R

$$

INZ006>009-017-018-025>027-300600-
NORTHEAST INDIANA

CITY           SKY/WX    TMP DP  RH WIND       PRES   REMARKS
ANGOLA *+      MOCLDY    55  55 100 CALM      29.91R
FORT WAYNE     CLOUDY    61  56  83 SW5       29.93R
KENDALLVILLE + CLOUDY    56  51  82 S3        29.92R

$$

INZ028-029-035-036-043>045-051>053-300600-
WEST CENTRAL INDIANA

CITY           SKY/WX    TMP DP  RH WIND       PRES   REMARKS
CRAWFORDSVL +  MOCLDY    57  57 100 CALM      29.96R
LAFAYETTE      MOCLDY    58  57  97 CALM      29.94R
TERRE HAUTE    PTCLDY    62  56  80 W3        29.97R

$$

INZ030>032-037>040-046>048-054>057-064-065-300600-
CENTRAL INDIANA

CITY           SKY/WX    TMP DP  RH WIND       PRES   REMARKS
GREENWOOD *+   PTCLDY    65  55  70 CALM      29.96R
INDIANAPOLIS   PTCLDY    62  56  80 NW5       29.95R
-EAGLE CREEK   PTCLDY    63  58  83 W5        29.95R
KOKOMO +       CLOUDY    61  56  83 SW7       29.95S
SHELBYVILLE    MOCLDY    66  54  65 CALM      29.95R

$$

INZ033-034-041-042-049-050-058-059-300600-
EAST CENTRAL INDIANA

CITY           SKY/WX    TMP DP  RH WIND       PRES   REMARKS
MUNCIE         LGT RAIN  63  58  83 CALM      29.95R
RICHMOND +     CLOUDY    64  55  72 NW13      29.97R

$$

INZ060-061-067>069-081>083-085>088-300600-
SOUTHWEST INDIANA

CITY           SKY/WX    TMP DP  RH WIND       PRES   REMARKS
EVANSVILLE     PTCLDY    63  57  81 S3        30.00R
HUNTINGBURG *+ CLOUDY    67  56  67 SW9       29.99R

$$

INZ062-063-066-070>080-084-089>092-300600-
SOUTH CENTRAL AND SOUTHEAST INDIANA

CITY           SKY/WX    TMP DP  RH WIND       PRES   REMARKS
BLOOMINGTON    PTCLDY    64  52  64 CALM      29.96S
MADISON *+     CLOUDY    68  55  64 S6        29.98S
SEYMOUR +      CLOUDY    70  55  60 W7        29.96R

$$





USA.gov is the U.S. government's official web portal to all federal, state and local government web resources and services.